www.pogodaiklimat.ru

Погода и климат >> Архив погоды >> Россия >> Нижегородская область >> Лукоянов


ПОГОДА в Лукоянове

  • Прогноз погоды в Лукоянове
  • Монитор погоды в Лукоянове
  • Климат города

АРХИВ ПОГОДЫ в Лукоянове

Время (UTC), дата Ветер
(напр.,м/с)
 
Видим.   Явления Облачность Т
(С)
Тd
(С)
f
(%)
Тe
(С)
Тes
(С)
Комфортность P
(гПа)
Po
(гПа)
Тmin
(С)
Tmax
(С)
R
(мм)
R24
(мм)
S
(см)
09 17.11 ЮЗ 3-7
{8}
10 км 10/10 600 м
[Cb cap]
+1.3 -0.7 87 -3 -3 1021.5 994.1
12 17.11 З 2-5
{7}
10 км 10/10 600 м
[Cb cap]
+0.5 -0.9 90 -3 -3 1022.5 995.0
15 17.11 ЮЗ 3-6
{7}
10 км 10/10 600 м
[Cb cap]
+0.2 -1.5 88 -4 -4 1022.9 995.4 +1.3
18 17.11 ЮЗ 3-6
{7}
10 км 10/10 600 м
[Cb cap]
+0.4 -1.6 86 -4 -4 1022.2 994.7
21 17.11 ЮЗ 3-7
{10}
10 км 10/10 600 м
[Cb cap]
-0.0 -1.8 88 -5 -5 1021.4 993.9
00 18.11 ЮЗ 5-9
{11}
10 км 10/0
[Ac und]
-0.8 -3.3 83 -7 -7 1021.0 993.5
03 18.11 ЮЗ 4-10
{10}
10 км 10/0
[Ac und]
-0.6 -2.7 86 -6 -6 1019.9 992.4 -0.8
06 18.11 ЮЗ 3-7
{10}
10 км слабый снег 10/0
[As op]
-0.4 -1.6 92 -5 -5 1020.2 992.7
09 18.11 ЮЗ 5-9
{9}
10 км {снег} 10/0
[As op]
+0.3 -0.8 92 -6 -6 1020.6 993.2
12 18.11 ЮЗ 4-7
{9}
10 км {снег} 10/10 600 м
[Cb cap]
+0.6 -0.5 92 -5 -5 1020.7 993.3
15 18.11 ЮЗ 3-5
{8}
10 км 10/10 600 м
[Cb cap]
+0.5 -0.3 94 -4 -4 1020.9 993.5 +0.6 0.0
18 18.11 ЮЗ 2-5
{6}
10 км 10/10 600 м
[Cb cap]
+0.6 -0.5 92 -3 -3 1020.7 993.3
21 18.11 Ю 2-5
{6}
10 км 10/10 600 м
[Cb cap]
+0.7 -0.4 92 -3 -3 1020.5 993.1
00 19.11 Ю 2-5
{7}
10 км 10/10 600 м
[Cb cap]
+0.8 -0.3 92 -3 -3 1020.0 992.6
03 19.11 Ю 2-5
{6}
10 км {ливн. осадки} 10/10 600 м
[Cb cap]
+0.3 -0.8 92 -3 -3 1019.2 991.8 +0.3 0.0 <0.5
06 19.11 Ю 3-6
{7}
10 км {ливн. осадки} 10/10 600 м
[Cb cap]
0.0 -0.8 94 -5 -5 1019.2 991.8 -0.1
09 19.11 Ю 4-6
{8}
10 км 10/0
[Ac und]
+0.7 -1.3 86 -5 -4 1018.4 991.1
12 19.11 ЮВ 3-5
{7}
10 км слабая морось 10/10 300 м
[St]
+0.6 -0.2 94 -4 -4 1016.8 989.5
15 19.11 ЮВ 4-8
{9}
10 км {морось} 10/10 600 м
[Cb cap]
+0.8 +0.3 96 -5 -5 1016.3 989.0 +1.1 0.0
18 19.11 ЮВ 3-7
{8}
4000 м слабый ливневой снег {морось} 10/10 300 м
[Cb cap]
+0.4 +0.1 98 -4 -4 1014.5 987.3
21 19.11 ЮВ 3-6
{8}
10 км {ливн. осадки} 10/10 600 м
[Cb cap]
+0.9 +0.6 98 -4 -4 1013.6 986.5
00 20.11 Ю 4-7
{7}
10 км слабый ливневой дождь 10/10 600 м
[Cb cap]
+2.3 +2.1 99 -3 -3 1012.3 985.3
03 20.11 Ю 3-6
{7}
4000 м слабая морось {ливн. осадки} 10/10 300 м
[St]
+2.5 +2.2 98 -2 -2 1012.2 985.2 +0.3 2
06 20.11 Ю 2-4
{6}
4000 м дымка {ливн. осадки, морось} 10/10 300 м
[St]
+3.0 +2.5 97 -0 -0 1012.6 985.7
09 20.11 ЮЗ 2-4
{5}
4000 м слабый ливневой дождь 10/10 300 м
[Cb cap]
+3.7 +3.5 99 +1 +1 1013.5 986.7
12 20.11 Ю 1-2
{5}
10 км {ливн. осадки} 10/10 300 м
[Cb cap]
+3.6 +3.4 99 +2 +2 1013.9 987.0
15 20.11 В 1-2
{2}
10 км {ливн. осадки} 10/10 600 м
[Cb cap]
+3.0 +2.7 98 +1 +1 1014.3 987.4 +3.8 3
18 20.11 ЮВ 2-3
{4}
4000 м слабый ливневой дождь 10/10 300 м
[Cb cap]
+3.4 +3.2 99 0 0 1013.4 986.5
21 20.11 ЮВ 4-6
{6}
4000 м слабый ливневой дождь 10/10 300 м
[Cb cap]
+4.2 +4.0 99 -0 -0 1010.7 983.9
00 21.11 ЮВ 5-9
{9}
4000 м дымка {ливн. осадки} 10/10 600 м
[Cb cap]
+4.8 +4.6 99 -0 -0 1008.1 981.5
03 21.11 ЮВ 4-7
{10}
10 км 10/10 1000 м
[Sc]
+3.8 +3.1 95 -1 -1 1006.3 979.6 +3.0 3
06 21.11 ЮВ 4-8
{10}
10 км слабый ливневой дождь 10/10 600 м
[Cb cap]
+2.1 +1.1 93 -3 -3 1006.4 979.5
09 21.11 ЮВ 4-9
{10}
10 км {ливн. осадки} 10/10 600 м
[Cb cap]
+2.0 +0.4 89 -3 -3 1006.2 979.3
12 21.11 ЮВ 3-7
{9}
10 км {ливн. осадки} 10/10 600 м
[Cb cap]
+2.8 +1.2 89 -1 -1 1005.5 978.7
15 21.11 ЮВ 3-7
{8}
10 км слабый ливневой дождь 10/10 600 м
[Cb cap]
+2.7 +1.7 93 -2 -2 1005.3 978.5 +2.8 3
18 21.11 Ю 3-6
{8}
10 км {ливн. осадки} 10/10 600 м
[Cb cap]
+3.0 +2.5 97 -1 -1 1004.9 978.2
21 21.11 ЮВ 3-6
{7}
10 км {ливн. осадки} 10/10 600 м
[Cb cap]
+2.6 +2.1 97 -2 -2 1004.8 978.0
00 22.11 ЮВ 2-5
{6}
10 км {ливн. осадки} 10/10 600 м
[Cb cap]
+1.8 +1.0 94 -2 -2 1004.8 978.0
03 22.11 ЮВ 3-5
{5}
10 км 10/10 600 м
[Cb cap]
+0.2 -0.4 96 -5 -5 1004.5 977.5 +0.2 0.6
06 22.11 ЮВ 3-5
{6}
10 км 10/0
[Ac und]
0.0 -0.3 98 -5 -5 1004.0 977.0 -0.1
09 22.11 ЮВ 3-6
{7}
20 км 6/0
[Ci fib]
+1.5 +0.1 90 -3 -2 1003.0 976.2
12 22.11 ЮВ 2-4
{7}
10 км 10/10 300 м
[Cb cap]
+1.5 +1.0 96 -2 -2 1003.0 976.2
15 22.11 ЮВ 2-3
{5}
4000 м слабая морось 10/10 300 м
[St]
+1.3 +1.0 98 -2 -2 1002.6 975.8 +1.8 0.0
18 22.11 В 1-3
{4}
4000 м слабая морось 10/10 300 м
[St]
+1.3 +1.0 98 -1 -1 1003.2 976.3
21 22.11 С 1-3
{3}
4000 м дымка {морось} 10/10 300 м
[St]
+1.5 +1.0 96 -1 -1 1003.3 976.4
00 23.11 СЗ 1-3
{3}
4000 м дымка {морось} 10/10 300 м
[St]
+1.5 +1.0 96 -1 -1 1004.3 977.4
03 23.11 СЗ 2-5
{6}
4000 м дымка 10/10 300 м
[St]
+1.1 +0.3 94 -3 -3 1005.2 978.3 +1.1 0.0
06 23.11 СЗ 3-6
{7}
4000 м слабый снег 10/0
[As op]
-0.8 -1.1 98 -6 -6 1007.3 980.1 -0.8
09 23.11 СЗ 3-7
{8}
4000 м слабый снег 10/0
[As op]
-1.2 -1.7 96 -6 -6 1009.1 981.8
12 23.11 СЗ 3-7
{10}
10 км {снег} 10/0
[As op]
-1.8 -2.3 96 -7 -7 1011.2 983.8
15 23.11 СЗ 3-6
{7}
10 км слабый снег 10/0
[As op]
-2.2 -2.8 96 -7 -7 1014.0 986.5 +1.1 2
18 23.11 С 2-4
{6}
10 км слабый снег 10/0
[As op]
-2.9 -3.3 97 -7 -7 1016.6 989.0
21 23.11 С 3-6
{7}
10 км {снег} 10/0
[As op]
-3.3 -4.0 95 -9 -9 1018.7 991.0
00 24.11 СЗ 2-4
{6}
10 км {снег} 10/0
[As op]
-3.8 -4.6 94 -8 -8 1020.8 993.0
03 24.11 СЗ 2-4
{5}
10 км 10/10 600 м
[Cb cap]
-4.0 -4.5 96 -8 -8 1022.1 994.1 -4.0 0.5 1
06 24.11 СЗ 2-4
{4}
10 км 10/0
[As op]
-4.0 -4.9 93 -8 -8 1022.9 994.9 -4.1

 

Местоположение метеостанции Лукоянов (Нижегородская область, Россия): широта 55.03 долгота 44.50 высота над уровнем моря 219 м.

В архиве по умолчанию представлена погода в Лукоянове за последнюю неделю. Архивные данные за месяц целиком и за предыдущие месяцы, начиная с января 2011 года, Вы можете получить, выбрав интересующий диапазон дат из раскрывающегося списка и нажав кнопку "Ввод!".

Внимание! Время в таблицах - всемирное. Для получения местного времени необходимо прибавить поправку, которая в Лукоянове равна 3 ч.

Смотрите также архив погоды в соседних городах и на ближайших метеорологических станциях:

Погода в Большом Болдино (Нижегородская область, Россия) (52 км)
Погода в Арзамасе (Нижегородская область, Россия) (59 км)
Погода в Краснослободске (Мордовия, Россия) (82 км)
Погода в Сергаче (Нижегородская область, Россия) (84 км)
Погода в Дальнем Константиново (Нижегородская область, Россия) (90 км)
Погода в Темникове (Мордовия, Россия) (93 км)
Погода в Саранске (Мордовия, Россия) (111 км)
Погода в Лысково (Нижегородская область, Россия) (114 км)
Погода в Порецком (Чувашия, Россия) (118 км)
Погода в Инсаре (Мордовия, Россия) (129 км)

Пояснения к столбцам:

Ветер - указаны скорость ветра в м/с - средняя за 10 мин, порывы в срок и между сроками (в фигурных скобках) и направление, откуда дует ветер: С - северный, СВ - северо-восточный, В - восточный, ЮВ - юго-восточный, Ю - южный, ЮЗ - юго-западный, З - западный, СЗ - северо-западный.
Видимость - горизонтальная дальность видимости в метрах или километрах. При видимости от 1 до 10 км при отсутствии осадков обычно наблюдается дымка, при ухудшении видимости до 1 км и менее - туман. В сухую погоду видимость может ухудшаться дымом, пылью или мглою.
Явления - указаны атмосферные явления, наблюдавшиеся в срок или в последний час перед сроком; фигурными скобками обозначены явления, наблюдавшиеся между сроками (за 1-3 часа до срока); квадратными скобками обозначены град или гололедные отложения с указанием их диаметра в мм.
Облачность - указаны через наклонную черту общая и нижняя облачность в баллах и высота нижней границы облаков в метрах; квадратными скобками обозначены формы облаков: Ci - перистые, Cs - перисто-слоистые, Cc - перисто-кучевые, Ac - высококучевые, As - высокослоистые, Sc - слоисто-кучевые, Ns - слоисто-дождевые, Cu - кучевые, Cb - кучево-дождевые. Подробнее классификацию облаков см. в Атласе облаков (PDF).
T - Температура воздуха - температура, измеренная на высоте 2 м над землей.
Td - Температура точки росы - температура, при понижении до которой содержащийся в воздухе водяной пар достигнет насыщения.
f - Относительная влажность воздуха - влажноcть воздуха, измеренная на высоте 2 м над землей.
Te - Эффективная температура - температура, которую ощущает одетый по сезону человек в тени. Характеристика душности погоды. При расчете учитывается влияние влажности воздуха и скорости ветра на теплоощущения человека.
Tes - Эффективная температура на солнце - температура, которую ощущает человек, с поправкой на солнечный нагрев. Характеристика знойности погоды. Зависит от высоты солнца над горизонтом, облачности и скорости ветра. Ночью, в пасмурную погоду, а также при ветре 12 м/с и более поправка равна нулю.
P - Атмосферное давление - приведенное к уровню моря атмосферное давление.
Po - Атмосферное давление - измеренное на уровне метеостанции атмосферное давление.
Tmin - Минимальная температура - минимум температуры воздуха на высоте 2 м над землей.
Tmax - Максимальная температура - максимум температуры воздуха на высоте 2 м над землей.
R - Количество осадков - Количество выпавших осадков за период времени, мм. При наведении курсора мыши на число - период времени, за который выпало указанное количество осадков.
R24 - Количество осадков - Количество выпавших осадков за 24 часа, мм.
S - Снежный покров - Высота снежного покрова, см. При наведении курсора мыши на число - состояние снежного покрова и степень покрытия местности в баллах.